[[{"header":{"parameterUnit":"m.s-1","parameterCategory":1,"la1":30.2991,"la2":30.254,"lo1":-89.0895,"lo2":-89.0444,"dy":0.0017,"dx":0.0017,"nx":28,"ny":28,"refTime":"2025-12-25T03:00:00:Z","depth":0,"parameterNumber":2,"parameterNumberName":"U-component_of_WINDS"},"data":[0,0,0,0,0,0,0,0,0,0,0,0,0,0,0,0,0,0,0,0,0,0,0,0,0,0,0,0,0,0,0,0,0,0,0,0,0,0,0,0,0,0,0,0,0,0,0,0,0,0,0,0,0,0,0,0,0,0,0.541,0.5411,0,0.5427,0.5427,0.5427,0.542,0.542,0.542,0.5419,0.5436,0.5437,0.5437,0,0,0,0,0,0,0,0,0,0,0,0,0,0.5373,0.5374,0.541,0.5411,0.5411,0.5427,0.5427,0.5427,0.542,0.542,0.542,0.5419,0.5436,0.5436,0.5437,0,0,0,0,0,0,0,0,0,0,0,0,0,0.5389,0.5374,0.541,0.5409,0.541,0.5427,0.5427,0.5427,0.5421,0.542,0.5419,0.5419,0.5435,0.5436,0.5438,0.5456,0,0,0.5441,0.5442,0,0,0,0,0,0,0,0,0.5388,0.5391,0.5409,0.541,0.541,0.5421,0.542,0.5437,0.5421,0.5416,0.5419,0.5419,0.5431,0.5433,0.5437,0.5457,0.5458,0.5441,0.5442,0.5443,0.5443,0,0,0,0,0,0,0,0.5387,0.539,0.5417,0.541,0.541,0.5408,0.541,0.5423,0.5427,0.5417,0.5416,0.5418,0.5431,0.5436,0.5437,0.5458,0.5441,0.5442,0.5443,0.5444,0.5494,0.5494,0,0,0,0,0,0,0.5386,0.5389,0.5416,0.5417,0.5397,0.5409,0.5411,0.5418,0.5427,0.5428,0.5419,0.5418,0.5434,0.5436,0.5438,0.546,0.5443,0.5444,0.5444,0.5493,0.5494,0.5494,0,0,0,0,0,0,0.5385,0.5389,0.5416,0.5403,0.5406,0.541,0.5418,0.5419,0.5423,0.5428,0.5429,0.5423,0.5434,0.5436,0.5452,0.5461,0.5444,0.5445,0.5492,0.5493,0.5494,0.5505,0,0,0,0,0,0,0.5384,0.5388,0.5396,0.5403,0.5407,0.5429,0.5419,0.5419,0.5425,0.5424,0.5432,0.5433,0.5434,0.545,0.5453,0.5462,0.5446,0.5492,0.5493,0.5494,0.5504,0.5506,0.5508,0,0,0,0,0,0.5383,0.5398,0.5396,0.54,0.5416,0.543,0.5432,0.5432,0.5426,0.5433,0.5436,0.5433,0.5459,0.5452,0.5455,0.5464,0.5491,0.5492,0.5494,0.5503,0.5505,0.5508,0,0,0,0,0,0,0.5392,0.5399,0.5397,0.5415,0.5422,0.5429,0.5438,0.5435,0.5444,0.5443,0.5443,0.5445,0.546,0.5464,0.5455,0.5483,0.5474,0.5476,0.548,0.5482,0.5485,0.5483,0.5447,0,0,0,0,0,0.5396,0.5407,0.5412,0.5428,0.5431,0.5434,0.544,0.544,0.5447,0.5449,0.5454,0.546,0.547,0.5476,0.5486,0.5504,0.5505,0.5512,0.5514,0.5516,0.5518,0.5527,0.553,0.5499,0.5499,0.5499,0,0,0.5405,0.541,0.5417,0.543,0.5435,0.5445,0.5437,0.5448,0.5456,0.5451,0.5466,0.5469,0.5477,0.5493,0.5501,0.5497,0.5527,0.5518,0.5519,0.552,0.5529,0.5532,0.5534,0.55,0.55,0.55,0,0,0.5426,0.5431,0.5444,0.5449,0.5457,0.5459,0.5462,0.5469,0.5471,0.5486,0.5482,0.5491,0.5508,0.5513,0.5518,0.554,0.5537,0.5543,0.5554,0.5563,0.5566,0.5568,0.5575,0.5578,0.5545,0.5545,0.5545,0,0.5435,0.5451,0.5451,0.5463,0.5469,0.5464,0.5477,0.5483,0.5493,0.5497,0.5492,0.5513,0.5517,0.5535,0.554,0.5545,0.5548,0.5542,0.5565,0.5567,0.5569,0.5576,0.5579,0.5546,0.5545,0.5545,0.5545,0,0.5462,0.5473,0.5483,0.5493,0.55,0.5512,0.5513,0.552,0.5519,0.5521,0.5536,0.5541,0.5551,0.5555,0.5555,0.5573,0.557,0.5565,0.5556,0.5573,0.5579,0.5582,0.5547,0.5546,0.5546,0.5546,0,0,0.5489,0.5499,0.5502,0.5507,0.5515,0.5523,0.5535,0.5544,0.555,0.5557,0.5567,0.5581,0.5576,0.5582,0.5582,0.5589,0.5606,0.5584,0.5584,0.5587,0.5625,0.5628,0.5631,0.5604,0.5604,0.5605,0.5624,0,0.5511,0.5531,0.5532,0.5551,0.556,0.5556,0.5567,0.5573,0.5575,0.5583,0.5585,0.5595,0.5589,0.5592,0.56,0.5602,0.5613,0.5601,0.5612,0.5613,0.561,0.5635,0.5638,0.5657,0.5627,0.5627,0.5628,0,0.5538,0.5546,0.5566,0.5572,0.5576,0.5585,0.5594,0.5602,0.5608,0.5609,0.5615,0.5613,0.5625,0.5616,0.5631,0.5623,0.5628,0.5629,0.563,0.5631,0.5621,0.5636,0.5663,0.5665,0.5632,0.5632,0.5631,0,0.5555,0.5571,0.5584,0.5588,0.5596,0.5602,0.5605,0.5611,0.5617,0.5624,0.5628,0.5636,0.5641,0.5647,0.5648,0.5641,0.5663,0.5655,0.5664,0.5664,0.5669,0.5668,0.5696,0.5672,0.5672,0.5672,0.5672,0,0.5578,0.559,0.5592,0.5601,0.5614,0.5614,0.5627,0.563,0.5635,0.5643,0.5641,0.5649,0.5649,0.5657,0.5658,0.567,0.5672,0.5673,0.5673,0.5673,0.5673,0.5676,0.5674,0.5673,0.5673,0.5673,0.5673,0,0.5599,0.5601,0.5616,0.5621,0.5623,0.5633,0.5637,0.5645,0.5647,0.5658,0.566,0.5663,0.5672,0.5673,0.5685,0.5685,0.57,0.5698,0.5698,0.5697,0.5706,0.5705,0.5737,0.5741,0.5715,0.5715,0.5715,0,0.5614,0.5623,0.563,0.5635,0.5639,0.5648,0.5654,0.5654,0.566,0.5667,0.5674,0.5683,0.569,0.5705,0.5708,0.5716,0.5715,0.5725,0.5716,0.5716,0.5714,0.5714,0.5714,0.5727,0.5727,0.5728,0.5728,0,0.5639,0.5639,0.5648,0.5656,0.5663,0.5669,0.5675,0.568,0.5681,0.5687,0.5697,0.5702,0.5714,0.5722,0.573,0.5734,0.5731,0.5731,0.5733,0.5733,0.5732,0.5732,0.5702,0.573,0.573,0.573,0.5729,0.5729,0.5657,0.5665,0.5671,0.568,0.5684,0.569,0.5697,0.57,0.5708,0.5717,0.5716,0.5727,0.5732,0.5742,0.5746,0.5754,0.575,0.5754,0.5755,0.5756,0.5757,0.5731,0.5755,0.5755,0.5755,0.5755,0.5755,0,0.5682,0.5685,0.5693,0.5702,0.5709,0.5706,0.5712,0.5718,0.5727,0.5733,0.574,0.575,0.5759,0.5762,0.577,0.5776,0.5775,0.5778,0.5777,0.5778,0.576,0.5756,0.5779,0.5779,0.5779,0.5779,0.5779,0.5779,0.5695,0.5708,0.5709,0.5724,0.5727,0.5737,0.5741,0.5746,0.575,0.5762,0.5769,0.5771,0.5776,0.5784,0.5791,0.5792,0.5795,0.5799,0.5799,0.5782,0.5779,0.5777,0.5774,0.5799,0.5799,0.5816,0.5816,0.5817]},{"header":{"parameterUnit":"m.s-1","parameterCategory":1,"la1":30.2991,"la2":30.254,"lo1":-89.0895,"lo2":-89.0444,"dy":0.0017,"dx":0.0017,"nx":28,"ny":28,"refTime":"2025-12-25T03:00:00:Z","depth":0,"parameterNumber":3,"parameterNumberName":"V-component_of_WINDS"},"data":[0,0,0,0,0,0,0,0,0,0,0,0,0,0,0,0,0,0,0,0,0,0,0,0,0,0,0,0,0,0,0,0,0,0,0,0,0,0,0,0,0,0,0,0,0,0,0,0,0,0,0,0,0,0,0,0,0,0,1.4997,1.4996,0,1.4955,1.4955,1.4954,1.4955,1.4956,1.4957,1.4957,1.4911,1.4909,1.4908,0,0,0,0,0,0,0,0,0,0,0,0,0,1.5075,1.5073,1.4997,1.4996,1.4996,1.4955,1.4955,1.4954,1.4955,1.4956,1.4957,1.4957,1.4912,1.491,1.4908,0,0,0,0,0,0,0,0,0,0,0,0,0,1.5038,1.5073,1.4997,1.4991,1.4991,1.4955,1.4955,1.4954,1.4955,1.4956,1.4957,1.4958,1.4912,1.491,1.4907,1.4873,0,0,1.4899,1.4898,0,0,0,0,0,0,0,0,1.504,1.5035,1.4993,1.4992,1.4991,1.4961,1.4965,1.4927,1.4955,1.4969,1.4957,1.4958,1.4927,1.4923,1.4913,1.4871,1.4869,1.4899,1.4897,1.4896,1.4895,0,0,0,0,0,0,0,1.5042,1.5037,1.498,1.4992,1.4991,1.499,1.4986,1.4958,1.4943,1.4967,1.4967,1.4963,1.4927,1.4916,1.4912,1.4869,1.4899,1.4897,1.4895,1.4894,1.4798,1.4797,0,0,0,0,0,0,1.5046,1.5039,1.4981,1.4979,1.5018,1.4988,1.4984,1.497,1.4944,1.494,1.4962,1.4963,1.492,1.4915,1.4911,1.487,1.4896,1.4894,1.4892,1.4799,1.4798,1.4796,0,0,0,0,0,0,1.5048,1.5041,1.4983,1.5009,1.5001,1.4986,1.4971,1.4969,1.4958,1.494,1.4937,1.4954,1.4921,1.4914,1.4883,1.4869,1.4893,1.489,1.48,1.4798,1.4797,1.4788,0,0,0,0,0,0,1.505,1.5042,1.5029,1.5009,1.5,1.4957,1.497,1.4967,1.4954,1.4955,1.4931,1.4928,1.4921,1.4887,1.4881,1.4865,1.4888,1.4801,1.4799,1.4797,1.479,1.4787,1.4784,0,0,0,0,0,1.5053,1.5027,1.5029,1.5022,1.4984,1.4956,1.4951,1.4944,1.4953,1.494,1.4928,1.4929,1.4871,1.4884,1.4876,1.486,1.4802,1.48,1.4798,1.4791,1.4787,1.4784,0,0,0,0,0,0,1.5045,1.5025,1.5026,1.4993,1.4976,1.4956,1.494,1.494,1.492,1.4921,1.4913,1.4907,1.4876,1.4865,1.4879,1.4827,1.4838,1.4834,1.4835,1.4831,1.4829,1.4832,1.4886,0,0,0,0,0,1.504,1.502,1.5002,1.4975,1.4967,1.4955,1.4942,1.4939,1.4921,1.4913,1.4899,1.4881,1.4859,1.4845,1.4823,1.4788,1.4783,1.4773,1.4771,1.4768,1.4765,1.4747,1.4743,1.4789,1.4789,1.4789,0,0,1.5028,1.5014,1.5002,1.4973,1.496,1.4939,1.4949,1.4926,1.491,1.4909,1.488,1.4869,1.4848,1.4815,1.48,1.4805,1.4751,1.4766,1.4764,1.4762,1.4744,1.474,1.4736,1.4788,1.4788,1.4788,0,0,1.4996,1.4984,1.496,1.4947,1.4928,1.492,1.4915,1.4895,1.4888,1.4859,1.4858,1.4839,1.4801,1.4786,1.4774,1.4738,1.4739,1.4732,1.4716,1.4699,1.4695,1.4692,1.468,1.4675,1.4728,1.4728,1.4728,0,1.4984,1.4953,1.4948,1.4925,1.4913,1.4913,1.4889,1.4876,1.485,1.4841,1.4848,1.4801,1.4787,1.4751,1.4743,1.4732,1.4726,1.4734,1.4696,1.4693,1.469,1.4678,1.4673,1.4728,1.4728,1.4728,1.4728,0,1.4939,1.4918,1.4901,1.4878,1.4863,1.484,1.483,1.4816,1.4814,1.4806,1.4776,1.4759,1.4735,1.4726,1.4723,1.469,1.4694,1.4698,1.4709,1.4685,1.4674,1.4669,1.4727,1.4727,1.4727,1.4727,0,0,1.49,1.4876,1.4869,1.486,1.4839,1.4822,1.4799,1.4777,1.4765,1.4747,1.4728,1.4696,1.4701,1.4687,1.4682,1.4666,1.464,1.4672,1.4672,1.4668,1.4604,1.4601,1.4596,1.464,1.464,1.4639,1.4606,0,1.4866,1.4827,1.4822,1.4786,1.4767,1.4767,1.4747,1.4732,1.4724,1.4706,1.4696,1.4674,1.4681,1.4673,1.4658,1.4647,1.4627,1.4649,1.4622,1.4621,1.4627,1.459,1.4587,1.4557,1.4601,1.4601,1.46,0,1.4821,1.4805,1.4767,1.4751,1.4743,1.4725,1.4705,1.4687,1.467,1.4665,1.4651,1.4649,1.4624,1.4636,1.4603,1.4618,1.4606,1.4599,1.4598,1.4595,1.4609,1.4587,1.4547,1.4542,1.4593,1.4594,1.4594,0,1.4797,1.4765,1.4739,1.4731,1.471,1.4698,1.4689,1.4673,1.466,1.4643,1.4634,1.4613,1.4602,1.4585,1.4578,1.4587,1.4545,1.4556,1.454,1.454,1.4531,1.4531,1.4489,1.4523,1.4523,1.4523,1.4523,0,1.476,1.4738,1.4729,1.4713,1.4687,1.4682,1.4657,1.4648,1.4634,1.4616,1.4615,1.4598,1.4588,1.457,1.4563,1.4537,1.4532,1.4527,1.4525,1.4527,1.4528,1.4519,1.4521,1.4522,1.4522,1.4522,1.4523,0,1.4729,1.4722,1.4694,1.4678,1.4674,1.4656,1.4642,1.4626,1.4619,1.4596,1.459,1.4578,1.4556,1.4547,1.452,1.4515,1.4486,1.4485,1.4492,1.4491,1.4476,1.4478,1.4426,1.442,1.4458,1.4458,1.4458,0,1.4706,1.4689,1.4672,1.4661,1.4652,1.4633,1.4621,1.4615,1.4602,1.4582,1.4569,1.4548,1.453,1.4496,1.4484,1.4463,1.4463,1.4446,1.446,1.4462,1.4463,1.4464,1.4463,1.4444,1.4443,1.4443,1.4443,0,1.4666,1.4664,1.4647,1.4629,1.4615,1.46,1.4586,1.4576,1.4568,1.4554,1.4533,1.4519,1.4493,1.4471,1.445,1.444,1.444,1.4439,1.4434,1.4436,1.444,1.4438,1.4486,1.444,1.444,1.444,1.4441,1.4441,1.4639,1.4624,1.461,1.4592,1.4581,1.4568,1.4553,1.4544,1.4527,1.4506,1.4503,1.448,1.4464,1.4437,1.4426,1.4408,1.4412,1.4405,1.4403,1.4401,1.4401,1.4444,1.4404,1.4404,1.4404,1.4404,1.4404,0,1.4599,1.4591,1.4574,1.4555,1.454,1.4543,1.4528,1.4515,1.4496,1.4482,1.4465,1.4441,1.4421,1.4408,1.4388,1.4376,1.4376,1.4371,1.4372,1.437,1.4398,1.4404,1.4372,1.4372,1.4372,1.4372,1.4372,1.4372,1.4577,1.4553,1.4549,1.452,1.4511,1.449,1.4481,1.4469,1.4458,1.4432,1.4416,1.4408,1.4395,1.4374,1.4356,1.4352,1.4345,1.434,1.4337,1.4364,1.4367,1.4371,1.4377,1.4339,1.4339,1.4311,1.431,1.431]}]]